Terug naar catalogus

STARLINK-36130

ActiefCommunicatieVLEO
NORAD 66931·PAYLOAD·🇺🇸 United States

Gelanceerd Dec 7, 2025 vanaf Vandenberg Space Force Base

Loading…

Volgende Passages (komende 24 uur)

TLE

VersSource: CelesTrak SupGP

Epoch: Sep 15, 2026, 02:40 UTC

1 66931C 25286G   26258.11159722 -.00060447  00000+0 -17859-2 0  2581
2 66931  53.1572 194.8277 0001331  88.0603 193.7420 15.34421170    16

Volg STARLINK-36130 in realtime met AllMySat

Download on the App Store